Wind_Speed
33 30 30 29 26 25 28 27 27 26 26 24 25 19 17 20 20 20 19 20 19 17 17 17 16 17 16 17 20 21 21 24 25 23 21 23 31 31 22 18 23 28 31
38 35 35 33 30 26 27 27 25 25 22 21 21 20 21 22 21 22 21 23 22 21 19 19 18 18 18 19 21 24 29 29 26 27 29 30 31 26 22 20 25 30 33
29 26 34 38 33 26 27 23 21 18 18 19 18 19 20 22 24 24 26 24 23 24 22 20 19 20 20 20 21 25 28 30 29 31 34 36 35 28 26 26 26 29 32
49 24 33 41 33 26 23 21 21 23 23 23 23 22 21 21 22 27 29 30 28 27 25 24 23 23 22 25 28 29 31 32 35 36 36 32 29 25 29 30 29 29 31
1 29 33 32 32 30 29 29 31 31 30 28 26 25 26 28 31 29 29 33 34 31 27 25 23 23 25 27 30 33 36 38 36 36 33 30 26 27 27 31 32 34 34
17 29 29 32 36 30 31 32 36 35 33 26 30 30 30 34 38 36 34 35 37 28 22 23 26 32 34 30 33 33 31 31 31 31 31 32 33 33 33 36 38 38 40
25 23 25 30 26 14 31 12 20 25 29 30 32 34 33 32 35 41 44 36 39 33 17 29 33 36 35 29 29 26 28 30 31 33 34 35 36 38 39 39 41 43 44
19 15 13 16 17 14 6 13 22 29 31 31 20 18 19 21 18 27 41 38 38 35 33 36 31 27 27 26 28 29 31 32 35 37 38 39 40 41 43 43 42 43 41
15 12 10 11 13 12 15 18 22 24 23 23 21 19 23 26 18 18 17 31 30 22 37 36 28 28 29 28 28 31 32 33 35 37 39 39 38 38 38 41 39 40 39
14 13 12 13 12 11 15 17 18 19 21 26 25 26 28 30 26 19 18 17 22 27 30 29 31 31 31 31 33 35 35 35 36 36 37 37 38 38 38 39 39 39 39
14 12 13 12 11 11 12 13 12 12 12 14 17 19 21 22 22 22 23 24 26 29 30 30 33 34 34 35 38 38 37 38 37 37 38 39 40 40 40 41 42 41 39
10 11 11 11 13 14 15 16 16 16 17 18 21 25 28 26 26 27 27 27 28 29 31 33 34 36 37 38 39 40 41 40 39 37 36 38 39 39 38 36 39 40 39
9 11 11 13 13 19 18 18 19 19 21 22 24 25 27 28 32 29 27 29 32 34 37 37 38 39 40 42 41 41 40 40 39 39 37 37 37 37 38 39 39 38 40
11 12 13 13 13 14 17 19 22 24 26 28 28 28 29 30 35 34 33 35 38 39 41 41 42 42 42 41 40 40 39 38 37 37 36 36 37 37 38 36 36 34 35
8 9 10 11 12 14 16 19 22 23 25 27 28 28 30 31 36 35 36 37 38 39 40 39 39 39 39 40 40 39 37 36 36 37 38 34 30 29 30 28 28 28 30
9 9 11 14 17 19 21 24 24 26 26 26 27 27 29 29 31 33 33 34 34 36 36 37 37 38 38 40 37 36 35 35 36 38 36 35 36 32 27 26 28 27 28
13 15 18 19 21 21 20 20 21 23 22 23 23 24 26 28 28 30 31 33 32 35 37 36 35 36 38 36 40 38 38 36 35 34 36 38 34 35 37 34 30 31 31
18 18 19 18 18 17 17 17 18 17 17 16 22 20 22 24 25 27 30 31 31 31 35 34 34 42 43 43 43 43 42 40 38 34 35 36 38 37 35 35 34 32 29
16 15 14 14 13 14 17 14 9 12 14 18 18 20 23 22 23 23 25 27 29 31 32 34 36 42 41 42 42 42 43 41 40 38 35 36 36 37 34 33 32 34 33
14 14 15 13 12 10 19 16 17 22 19 22 21 21 22 22 24 24 27 28 29 31 35 36 35 38 39 39 38 37 37 37 37 35 35 35 35 35 34 33 32 35 34
7 15 19 19 22 18 21 22 20 23 30 20 19 17 19 24 22 24 27 25 30 34 35 34 31 30 30 31 31 32 30 32 30 30 31 32 33 35 34 31 30 32 31
9 12 20 25 29 30 30 29 29 22 26 22 17 21 16 18 22 27 26 33 37 38 34 29 23 25 27 28 30 29 32 29 28 26 25 25 28 30 32 34 33 32 32
13 14 15 19 26 32 34 33 25 24 19 20 18 18 18 20 22 23 27 34 37 33 29 24 25 23 27 27 28 31 30 28 22 23 18 21 23 25 26 29 31 33 36
16 17 23 28 28 28 26 21 24 23 20 20 14 8 18 22 18 25 24 27 29 28 27 25 25 25 24 24 26 27 27 25 23 20 22 25 24 25 28 28 30 33 34
19 23 22 25 26 21 17 10 21 15 12 14 12 15 21 22 20 24 22 24 27 26 27 24 20 21 23 24 23 20 20 19 19 21 24 27 28 29 28 28 30 29 31
12 12 14 16 15 11 8 9 16 13 10 15 15 22 23 22 23 21 20 22 22 22 23 24 23 22 19 20 19 18 19 20 21 24 27 30 32 33 36 36 35 36 33
Wind_Direction
229 240 245 243 247 256 241 237 238 240 247 247 262 272 261 255 255 257 258 255 254 247 250 251 262 260 258 263 268 272 275 283 288 294 290 278 289 309 280 289 296 297 295
232 234 241 240 243 256 244 239 240 243 247 253 256 261 262 261 260 259 258 252 254 249 252 259 261 259 263 271 277 278 283 283 282 291 293 298 298 296 288 287 295 294 291
251 234 231 233 237 247 244 239 246 252 260 267 270 271 273 271 265 262 260 252 248 251 257 257 255 259 266 273 281 286 285 283 286 287 290 289 290 290 285 283 289 288 285
259 222 227 227 227 230 235 244 256 258 259 263 265 266 263 266 268 266 264 256 249 249 254 253 258 265 273 281 283 288 287 285 286 287 292 294 291 285 288 292 296 289 287
180 221 209 216 216 217 225 236 243 247 251 254 257 259 257 256 258 258 253 257 252 250 251 256 261 275 279 283 293 289 284 286 283 286 287 290 293 294 295 292 293 294 294
234 233 235 230 216 221 228 237 243 243 243 250 257 258 259 263 259 252 259 259 254 258 258 265 270 275 277 287 289 283 282 284 285 283 281 283 287 287 287 288 291 292 292
255 262 273 246 246 308 261 293 257 262 257 259 257 271 271 272 265 257 254 247 254 245 280 298 292 287 284 278 277 277 280 280 282 282 282 282 283 284 284 286 287 287 289
258 268 270 249 263 263 204 220 248 260 259 263 262 265 285 291 274 272 253 247 242 252 243 296 283 272 268 270 275 281 283 284 284 283 281 280 280 281 284 285 285 285 286
260 258 247 235 238 236 243 249 254 261 265 267 270 277 278 284 287 291 298 242 269 253 260 266 270 270 272 277 282 284 286 289 288 287 288 287 285 284 284 284 285 286 289
244 255 255 253 252 260 258 258 262 263 264 264 265 266 274 273 279 282 279 272 262 258 259 271 275 278 283 286 285 287 287 287 287 287 285 286 288 287 285 284 285 285 287
213 222 242 246 254 264 268 267 269 278 277 280 280 276 275 273 274 273 274 274 273 274 276 278 279 280 284 285 286 288 288 288 288 287 284 281 281 282 285 288 288 287 285
210 217 231 241 250 255 261 269 270 272 275 277 278 279 279 277 278 279 280 280 279 280 280 280 282 287 287 288 288 289 289 288 286 284 281 280 280 281 283 281 279 282 285
229 223 230 237 247 260 265 271 271 272 275 279 283 284 282 282 282 280 281 281 283 285 284 286 285 286 286 287 287 287 288 288 286 284 282 279 278 278 278 279 279 277 277
245 243 246 252 247 248 257 267 274 278 280 282 283 286 288 292 287 291 291 287 287 287 287 288 290 291 291 290 289 289 289 290 290 286 281 276 275 275 275 276 278 279 282
269 270 267 269 270 271 273 275 274 273 272 273 275 277 278 280 282 285 286 287 288 288 288 289 290 289 288 287 287 289 292 290 288 285 286 280 272 274 276 275 271 272 275
287 285 284 287 289 288 285 281 274 274 274 273 274 276 278 278 280 283 285 285 287 287 288 289 289 289 289 288 289 288 286 284 282 281 282 283 283 268 260 254 256 257 260
287 292 292 289 289 288 287 283 283 285 280 276 275 275 275 276 277 280 283 285 289 291 293 296 297 294 292 294 293 293 290 286 284 278 277 279 272 272 276 272 267 268 267
286 290 292 291 290 288 284 288 286 285 285 294 288 280 271 275 281 283 285 287 291 293 294 295 291 290 293 292 292 293 289 286 283 279 274 270 272 271 267 270 271 269 266
299 298 297 297 303 297 303 303 303 284 282 286 292 293 297 296 292 292 290 291 294 290 287 286 283 283 286 286 286 282 281 282 283 280 275 271 269 267 272 266 267 265 265
304 313 308 305 305 293 287 300 304 312 304 308 308 309 308 310 313 320 301 305 304 309 304 301 293 289 289 287 285 283 281 279 277 274 272 271 270 270 270 267 263 266 260
304 304 305 310 314 308 305 314 303 305 315 306 308 307 299 308 310 302 312 317 319 315 308 304 298 293 290 289 295 293 285 284 286 284 276 271 269 268 267 264 263 267 264
307 307 313 317 315 311 305 299 299 292 285 313 298 301 299 311 313 315 313 312 321 319 312 306 301 305 300 296 297 298 284 282 281 284 283 281 279 276 271 264 258 258 266
303 300 302 290 278 280 285 289 292 287 276 308 295 305 298 304 296 301 305 321 324 322 315 307 305 305 304 293 296 304 302 284 278 277 276 283 285 283 281 276 264 263 255
331 299 275 279 283 287 284 277 294 275 277 272 277 284 296 293 302 309 323 335 343 337 328 313 309 307 309 308 306 301 300 279 274 277 278 283 280 282 282 282 277 269 268
284 296 301 295 295 293 288 293 284 247 300 280 256 291 293 292 302 314 318 327 334 338 346 343 330 333 321 307 310 314 313 297 292 285 287 289 288 290 281 280 279 287 270
329 323 340 344 337 323 328 302 308 321 282 297 299 286 298 300 299 315 318 325 331 336 344 355 354 344 329 337 337 325 323 316 308 300 297 295 291 288 283 280 278 274 272
Height
3172 3174 3174 3176 3177 3177 3178 3180 3181 3182 3182 3182 3177 3178 3179 3184 3187 3189 3191 3192 3194 3193 3194 3194 3194 3196 3196 3196 3196 3196 3196 3195 3194 3194 3193 3195 3190 3187 3184 3185 3185 3185 3183
3164 3167 3170 3171 3171 3173 3174 3176 3178 3179 3179 3179 3180 3180 3181 3183 3185 3185 3185 3186 3188 3189 3188 3189 3190 3190 3190 3191 3191 3190 3189 3188 3187 3185 3183 3183 3182 3181 3180 3179 3179 3178 3176
3152 3157 3162 3165 3167 3168 3171 3174 3175 3177 3178 3178 3178 3179 3180 3180 3180 3181 3181 3181 3182 3183 3184 3184 3184 3184 3184 3184 3184 3184 3183 3181 3180 3178 3177 3176 3175 3174 3173 3172 3173 3171 3169
3147 3137 3155 3156 3160 3163 3169 3172 3173 3173 3173 3172 3172 3173 3173 3173 3174 3176 3176 3176 3177 3177 3178 3178 3178 3178 3178 3179 3178 3177 3176 3175 3173 3171 3169 3167 3167 3167 3164 3164 3163 3162 3161
3136 3137 3123 3137 3151 3153 3158 3161 3163 3164 3165 3165 3166 3166 3167 3166 3166 3166 3167 3169 3170 3171 3171 3173 3173 3172 3171 3170 3169 3168 3168 3166 3164 3163 3161 3160 3160 3159 3158 3157 3155 3155 3153
3132 3139 3140 3147 3140 3146 3148 3153 3154 3155 3156 3157 3157 3158 3158 3158 3159 3159 3160 3161 3161 3163 3165 3166 3167 3167 3164 3161 3161 3161 3160 3157 3156 3155 3154 3152 3152 3151 3151 3149 3146 3145 3144
3136 3138 3139 3137 3141 3141 3146 3148 3146 3143 3151 3152 3152 3152 3152 3151 3150 3150 3152 3151 3153 3153 3155 3159 3158 3157 3155 3154 3154 3153 3152 3151 3150 3148 3146 3145 3143 3142 3141 3140 3139 3136 3135
3136 3137 3136 3138 3138 3136 3130 3136 3140 3142 3145 3145 3145 3146 3146 3144 3142 3142 3141 3142 3143 3146 3149 3152 3151 3150 3148 3148 3147 3145 3145 3144 3141 3138 3137 3136 3134 3133 3131 3129 3128 3126 3126
3133 3132 3133 3134 3136 3134 3132 3134 3137 3138 3137 3139 3139 3139 3140 3141 3139 3138 3134 3136 3140 3140 3147 3147 3143 3142 3141 3141 3138 3137 3136 3135 3132 3129 3127 3127 3125 3123 3121 3119 3118 3115 3114
3130 3131 3130 3131 3131 3131 3131 3133 3134 3133 3132 3133 3135 3135 3135 3135 3134 3132 3133 3133 3135 3138 3139 3138 3136 3134 3133 3131 3129 3128 3127 3124 3122 3119 3119 3117 3114 3112 3112 3109 3107 3105 3105
3127 3128 3129 3128 3128 3128 3129 3130 3130 3130 3130 3130 3130 3130 3130 3130 3129 3129 3129 3129 3129 3129 3128 3127 3124 3124 3125 3123 3121 3119 3116 3114 3113 3110 3108 3107 3106 3104 3103 3099 3095 3095 3094
3127 3127 3128 3127 3128 3129 3129 3128 3128 3128 3127 3127 3127 3125 3124 3123 3121 3122 3122 3122 3121 3120 3119 3118 3117 3115 3112 3110 3108 3106 3103 3102 3100 3099 3098 3097 3094 3093 3093 3091 3087 3084 3085
3125 3126 3126 3126 3126 3126 3125 3125 3125 3125 3123 3123 3121 3120 3117 3115 3112 3114 3115 3113 3112 3110 3108 3107 3105 3104 3101 3099 3097 3095 3092 3090 3088 3086 3085 3084 3083 3082 3080 3079 3079 3078 3076
3122 3122 3122 3122 3122 3122 3122 3121 3120 3119 3118 3117 3114 3112 3110 3108 3101 3103 3103 3101 3099 3097 3095 3094 3092 3090 3088 3086 3084 3083 3081 3079 3076 3075 3073 3073 3072 3071 3070 3070 3068 3067 3065
3119 3118 3117 3117 3117 3117 3116 3116 3115 3114 3112 3110 3107 3106 3103 3101 3097 3096 3094 3091 3089 3087 3085 3083 3082 3080 3078 3076 3073 3071 3070 3068 3066 3063 3062 3061 3060 3060 3060 3061 3060 3059 3058
3114 3114 3113 3113 3112 3110 3109 3108 3108 3105 3104 3102 3100 3098 3095 3093 3090 3087 3085 3083 3081 3078 3076 3073 3071 3068 3065 3062 3062 3059 3058 3057 3055 3052 3051 3049 3049 3049 3049 3050 3049 3051 3049
3109 3109 3108 3107 3105 3103 3102 3101 3098 3096 3094 3093 3092 3091 3088 3085 3083 3080 3077 3074 3072 3068 3065 3063 3059 3055 3052 3052 3048 3047 3045 3044 3043 3041 3040 3038 3036 3037 3039 3038 3037 3037 3037
3103 3103 3101 3100 3099 3098 3096 3095 3093 3091 3089 3087 3083 3082 3079 3078 3075 3073 3070 3066 3064 3060 3057 3054 3051 3045 3043 3040 3037 3034 3032 3031 3030 3028 3027 3027 3025 3025 3025 3027 3029 3028 3028
3096 3095 3095 3093 3092 3092 3089 3088 3088 3087 3085 3081 3079 3075 3071 3070 3067 3066 3063 3059 3056 3053 3050 3046 3042 3037 3034 3031 3028 3025 3022 3018 3016 3016 3016 3015 3014 3014 3015 3015 3016 3018 3019
3090 3089 3089 3088 3087 3088 3084 3083 3080 3078 3076 3073 3071 3068 3065 3063 3059 3057 3055 3051 3046 3040 3035 3033 3029 3025 3022 3019 3016 3013 3009 3007 3005 3005 3004 3004 3004 3003 3004 3005 3006 3006 3008
3088 3086 3085 3084 3083 3082 3079 3077 3075 3072 3070 3068 3065 3063 3060 3057 3056 3052 3046 3042 3039 3034 3028 3022 3019 3016 3013 3008 3005 3002 2999 2997 2995 2994 2993 2992 2993 2992 2993 2994 2995 2996 2996
3084 3085 3082 3079 3077 3074 3072 3070 3069 3066 3064 3062 3059 3058 3054 3052 3051 3045 3042 3035 3030 3023 3017 3013 3010 3006 3004 3001 2998 2995 2992 2990 2988 2987 2986 2985 2984 2984 2984 2984 2985 2986 2987
3080 3081 3080 3079 3073 3069 3066 3064 3061 3060 3057 3056 3054 3055 3052 3050 3047 3043 3036 3029 3022 3015 3010 3005 3003 3000 2997 2994 2991 2988 2985 2982 2982 2979 2979 2980 2979 2977 2976 2975 2975 2975 2977
3075 3075 3070 3067 3064 3062 3059 3056 3055 3053 3052 3051 3049 3046 3048 3045 3042 3036 3030 3025 3018 3011 3006 3001 2998 2995 2992 2988 2985 2983 2979 2977 2976 2975 2974 2974 2972 2971 2969 2967 2966 2965 2965
3069 3066 3064 3060 3056 3053 3052 3051 3048 3043 3048 3045 3044 3044 3043 3039 3037 3031 3026 3022 3017 3011 3005 2998 2994 2990 2986 2983 2980 2977 2974 2972 2971 2970 2969 2967 2965 2963 2961 2959 2958 2956 2955
3065 3062 3059 3055 3052 3050 3048 3047 3046 3046 3046 3043 3043 3039 3036 3035 3031 3027 3023 3019 3014 3009 3003 2997 2993 2988 2984 2981 2977 2974 2972 2969 2967 2964 2962 2959 2956 2953 2951 2948 2947 2946 2946